Location: Dronninggaard
(55.8091°N, 12.4540°E)
Time: 10:00:00
(UTC+00:00)

Daily predictions for brighter satellites

Satellite Brightness Start Highest point End
(mag) Time Altitude Azimuth Time Altitude Azimuth Time Altitude Azimuth
BREEZE M DEB (TANK) 3.9 20:01:11 10° WSW 20:04:32 39° S 20:14:02 10° ESE
Cosmos 1464 Rocket 4.2 20:07:26 10° SSE 20:13:28 55° E 20:19:28 10° NNE
Cosmos 1151 Rocket 3.5 20:11:00 10° SSW 20:15:15 65° WNW 20:19:32 10° N
BREEZE-M DEB (TANK) 4.4 20:12:14 10° SW 20:16:05 46° SSE 20:28:40 10° E
CZ-4C R/B 3.8 20:13:14 10° WNW 20:18:52 44° N 20:25:47 10° ENE
Cosmos 1315 Rocket 4.4 20:16:00 10° NNW 20:19:46 35° W 20:23:29 10° SSW
Meteor 1-27 Rocket 3.9 20:15:33 10° S 20:21:13 62° E 20:27:02 10° NNE
Cosmos 1844 Rocket 4.4 20:17:03 10° NNW 20:21:47 26° NNE 20:26:28 10° E
Cosmos 2228 Rocket 4.4 20:18:58 10° SE 20:22:45 26° E 20:26:32 10° NNE
SJ 16-02 3.0 20:19:56 10° SE 20:22:47 17° E 20:25:40 10° NE
Meteor 1-11 Rocket 4.3 20:18:10 10° NNW 20:24:04 65° W 20:29:58 10° S
Cosmos 1092 Rocket 4.4 20:18:20 10° N 20:24:25 50° ENE 20:30:24 10° SE
Cosmos 1486 Rocket 4.4 20:20:32 10° S 20:25:34 45° ESE 20:30:35 10° NE
Timation 2 Rocket 4.2 20:20:02 10° NW 20:26:31 88° ENE 20:33:14 10° SE
Cosmos 2297 Rocket 3.5 20:21:48 10° NW 20:26:53 35° WSW 20:31:57 10° S
ASTRO F (AKARI) 4.1 20:25:21 10° SSE 20:28:23 85° ENE 20:31:33 10° NNW
Cosmos 1697 Rocket 3.0 20:23:04 10° S 20:28:26 46° ESE 20:33:50 10° NE
Spot 2 Rocket 3.6 20:23:57 10° SSE 20:29:00 81° WSW 20:34:05 10° NNW
Nadezhda 4 Rocket 4.1 20:24:42 10° N 20:31:02 83° E 20:37:15 10° SSE
Cosmos 773 Rocket 4.2 20:26:12 10° NNW 20:31:29 70° ENE 20:36:41 10° SE
Cosmos 1515 Rocket 3.5 20:28:54 10° S 20:33:14 75° E 20:37:39 10° NNE
Meteor 2-9 Rocket 4.4 20:27:32 10° NNW 20:33:25 73° ENE 20:39:09 10° SSE
BREEZE-M DEB (TANK) 3.2 20:34:01 10° SW 20:35:48 19° S 20:37:33 10° ESE
Cosmos 1869 Rocket 3.7 20:36:02 10° N 20:40:32 70° ENE 20:45:00 10° SSE
ARIANE 5 R/B 2.7 20:36:34 10° SSE 20:41:02 78° ENE 20:45:35 10° NNW
ATLAS 2AS CENTAUR R/B 3.8 20:42:16 10° S 20:48:34 28° ESE 20:54:43 10° ENE
SL-16 R/B 4.1 20:46:42 10° ESE 20:48:56 12° E 20:51:10 10° ENE
Cosmos 44 Rocket 3.4 20:47:17 10° NW 20:52:04 70° NE 20:56:45 10° ESE
NOSS 3-4 (A) 3.5 20:46:41 10° SSW 20:52:18 55° SE 20:58:27 10° NE
NOSS 3-4 (C) 3.5 20:46:46 10° SSW 20:52:23 54° SE 20:58:33 10° NE
Cosmos 1503 Rocket 4.4 20:48:46 10° S 20:53:46 47° ESE 20:58:53 10° NE
ATLAS CENTAUR R/B 3.4 20:50:12 10° NW 20:54:41 33° NNE 20:59:07 10° E
Cosmos 2026 Rocket 4.1 20:50:33 10° N 20:56:40 69° ENE 21:02:33 11° SSE
Aureole 1 Rocket 2.2 20:54:29 10° SSW 20:57:40 58° ESE 21:00:37 10° NE
Cosmos 2219 4.5 20:52:58 10° NW 20:57:58 33° WSW 21:02:56 10° S
Cosmos 921 Rocket 3.5 20:54:39 10° NNW 20:59:07 59° WSW 21:03:26 11° S
CZ-4B R/B 4.2 20:57:26 10° NNW 20:59:51 20° WNW 21:02:15 10° WSW
USA 267 3.3 20:54:57 10° ESE 21:01:32 79° SSW 21:08:07 10° WNW
Cosmos 1378 3.9 20:59:52 13° SSE 21:02:46 36° E 21:06:11 10° NNE
Cosmos 1346 Rocket 4.2 21:00:20 12° SE 21:03:07 24° E 21:06:25 10° NE
RESURS DK-1 3.9 21:01:00 13° SSE 21:03:20 20° ESE 21:06:20 10° ENE
Cosmos 389 Rocket 4.1 21:03:03 10° NNW 21:06:07 29° W 21:09:11 10° SSW
Cosmos 2082 4.3 21:03:11 10° NW 21:08:35 48° WSW 21:13:46 11° S
SPOT 5 4.0 21:04:08 10° S 21:09:13 45° W 21:14:12 10° NNW
SL-24 R/B - RUBIN 2 3.6 21:05:48 10° NW 21:10:12 85° NE 21:14:23 12° SE
Cosmos 1707 Rocket 4.3 21:08:54 13° SSE 21:12:27 39° E 21:16:35 10° NNE
Cosmos 2034 Rocket 4.1 21:06:41 10° S 21:12:59 87° W 21:19:23 10° NNE
Cosmos 1184 Rocket 3.2 21:10:19 10° SSW 21:13:18 57° WNW 21:16:20 10° N
Cosmos 2292 Rocket 2.8 21:11:00 10° NNW 21:14:32 78° W 21:16:59 15° S
Okean 1 3.3 21:15:10 10° SSW 21:19:10 85° W 21:23:14 10° N
ERS-1 Rocket 4.0 21:14:38 10° SSW 21:19:21 40° W 21:24:08 10° NNW
Cosmos 158 Rocket 4.0 21:14:57 10° NNW 21:20:02 86° WSW 21:24:25 15° SSE
Cosmos 2360 Rocket 4.3 21:20:33 10° E 21:21:22 10° E 21:22:10 10° E
ATLAS 3B R/B 3.0 21:14:07 10° NW 21:21:23 86° NE 21:28:59 10° SE
Meteor 1-19 Rocket 4.1 21:18:48 10° SSW 21:24:16 89° ESE 21:29:43 10° NNE
Cosmos 2263 Rocket 2.4 21:19:05 10° NW 21:24:38 64° WSW 21:29:18 15° SSE
ISS -3.0 21:22:50 10° W 21:25:55 33° SSW 21:28:01 17° SE
Cosmos 2344 3.5 21:24:38 10° SSW 21:31:54 65° SE 21:39:48 10° NE
SL-4 R/B 3.9 21:29:05 10° W 21:32:02 17° SW 21:34:00 13° S
Cosmos 2227 Rocket 4.2 21:28:53 10° WNW 21:32:41 19° W 21:36:28 10° SW
Cosmos 1975 3.1 21:29:51 10° NNW 21:33:55 64° W 21:37:13 15° S
Terra 3.0 21:30:19 10° SSW 21:34:42 36° W 21:39:06 10° NNW
Spot 4 4.2 21:32:31 15° SE 21:36:26 59° ENE 21:41:10 10° N
Cosmos 1441 Rocket 4.4 21:34:50 16° SE 21:36:56 27° E 21:40:07 10° NE
Cosmos 1680 Rocket 4.4 21:31:54 10° NNW 21:37:02 45° NE 21:42:06 10° SE
Cosmos 1733 Rocket 3.1 21:35:50 10° NNW 21:40:19 87° WSW 21:43:44 17° S
ALOS 2 3.4 21:37:55 14° SE 21:41:26 42° ENE 21:45:35 10° N
Meteor 2-4 Rocket 3.8 21:37:43 12° S 21:43:06 74° E 21:48:47 10° NNE
Cosmos 2279 Rocket 4.2 21:39:47 15° S 21:44:54 59° E 21:51:01 10° NNE
Cosmos 1908 Rocket 4.2 21:42:34 10° N 21:46:47 46° ENE 21:49:57 16° SE
Cosmos 2369 3.7 21:42:53 10° SSW 21:48:34 89° NW 21:54:17 10° NE
Cosmos 1980 Rocket 2.2 21:45:20 10° SSW 21:50:59 85° ESE 21:56:43 10° NE
Meteor 2-10 4.3 21:46:53 10° N 21:52:17 62° ENE 21:56:21 17° SSE
Meteor 2-8 Rocket 4.4 21:47:02 13° S 21:52:40 83° E 21:58:47 10° NNE
Cosmos 1805 3.3 21:49:00 10° N 21:52:54 68° ENE 21:55:31 20° SSE
Cosmos 1862 Rocket 3.7 21:51:03 18° S 21:54:18 61° E 21:58:44 10° NNE
Cosmos 2322 Rocket 3.3 21:53:11 16° SSE 21:56:22 27° ESE 22:01:00 10° NE
ERS-2 3.6 21:53:43 10° NE 21:56:39 23° E 21:58:20 17° SE
Cosmos 1354 Rocket 4.2 21:52:33 10° SSW 21:57:51 79° WNW 22:03:12 10° NNE
H-2A R/B 4.3 21:55:32 10° NNE 21:59:18 34° E 22:01:37 19° SSE
Cosmos 1766 3.9 21:56:39 10° N 22:00:27 46° ENE 22:03:05 18° SE
Cosmos 2228 Rocket 3.9 21:56:15 10° SSW 22:00:42 51° WNW 22:05:11 10° N
SJ 16-02 1.4 21:56:25 10° SSW 22:00:47 79° WNW 22:05:12 10° NNE
Meteor 1-18 Rocket 4.5 21:56:25 10° SSW 22:02:09 72° WNW 22:07:49 10° NNE
SAR-Lupe-4 4.4 22:00:06 10° N 22:03:36 50° WNW 22:07:05 10° SW
NOSS 2-1 (C) 4.3 22:03:34 19° SE 22:03:54 19° SE 22:06:21 10° ENE
Meteor 1-12 Rocket 4.5 21:58:32 10° NNW 22:04:34 74° ENE 22:09:11 17° SSE
NOSS 2-1 (D) 4.2 22:05:14 20° SE 22:05:35 20° SE 22:08:04 10° ENE
USA 215 3.5 21:59:51 10° ENE 22:06:10 48° SE 22:12:27 10° SW
Cosmos 1844 Rocket 2.8 22:00:57 10° NNW 22:06:35 75° NE 22:11:24 14° SE
Cosmos 1777 Rocket 4.0 22:01:35 10° SSW 22:06:48 85° ESE 22:12:05 10° NNE
Iridium 2 3.9 22:04:35 10° NNW 22:08:20 62° W 22:10:50 19° S
CZ-4C R/B 3.3 22:02:07 10° NW 22:08:30 60° NNE 22:16:19 10° ESE
USA 81 4.4 22:03:54 12° SSW 22:08:47 65° WNW 22:14:04 10° N
Cosmos 1461 4.4 22:05:50 10° NW 22:09:36 35° NNE 22:13:27 10° E
Meteor 2-15 4.5 22:04:55 13° SSW 22:10:26 83° WNW 22:16:34 10° NNE
Cosmos 1356 4.0 22:09:53 23° SSE 22:11:27 41° E 22:14:37 10° NNE
Cosmos 1697 Rocket 3.7 22:06:57 10° WSW 22:12:28 49° NW 22:17:58 10° NNE
Cosmos 1844 3.9 22:08:04 10° NNW 22:13:55 74° NE 22:19:03 14° SE
Meteor 1-4 Rocket 2.5 22:10:58 10° NNW 22:14:24 69° WSW 22:16:23 23° S
Cosmos 1726 2.4 22:13:45 10° N 22:17:23 59° ENE 22:19:37 22° SSE
Cosmos 1655 Rocket 4.0 22:12:28 10° N 22:18:47 83° ENE 22:23:33 18° SSE
Meteor 1-13 Rocket 4.4 22:14:44 18° S 22:18:50 60° E 22:24:18 10° NNE
Cosmos 1634 Rocket 4.4 22:14:43 10° SSW 22:20:52 62° WNW 22:27:02 10° N
Iridium 4 Rocket 3.1 22:23:11 10° N 22:27:31 86° E 22:30:35 21° S
Cosmos 2219 Rocket 4.1 22:25:01 10° SE 22:27:56 15° E 22:30:54 10° ENE
Cosmos 1733 3.7 22:27:25 10° NNW 22:31:07 50° W 22:33:22 21° SSW
SL-16 R/B 2.4 22:27:38 17° S 22:31:51 57° ESE 22:37:25 10° NE
Cosmos 44 Rocket 4.3 22:29:11 10° WNW 22:33:15 29° WSW 22:35:37 19° SSW
ATLAS CENTAUR R/B 1.9 22:29:14 10° NW 22:34:11 74° NE 22:38:58 10° SE
USA 229 DEB 4.4 22:29:02 10° NW 22:36:00 62° NNE 22:43:34 10° ESE
USA 229 4.4 22:29:07 10° NW 22:36:06 61° NNE 22:43:38 10° ESE
SL-19 R/B 4.5 22:34:47 19° SE 22:36:47 46° ENE 22:39:41 10° N
Cosmos 1470 3.4 22:33:17 10° N 22:37:05 47° ENE 22:39:37 19° SE
ATLAS 2AS CENTAUR R/B 2.9 22:30:58 10° SW 22:38:44 79° SE 22:46:11 10° NE
Cosmos 1346 Rocket 3.7 22:35:44 12° SW 22:39:12 44° WNW 22:43:05 10° N
RESURS DK-1 2.5 22:36:47 10° SW 22:40:53 73° NW 22:45:02 10° NE
NOSS 3-4 (A) 4.1 22:37:21 10° WSW 22:43:12 59° NNW 22:49:47 10° NE
NOSS 3-4 (C) 4.1 22:37:25 10° WSW 22:43:18 60° NNW 22:49:52 10° NE
ADEOS Rocket 2.8 22:40:53 19° SSE 22:45:02 89° WSW 22:51:03 10° NNW
USA 267 3.8 22:40:37 17° SSE 22:45:08 40° SW 22:51:14 10° WNW
Meteor 1-22 Rocket 4.4 22:40:24 10° NNW 22:46:14 83° ENE 22:50:44 19° SSE
Cosmos 2278 4.1 22:43:46 10° SW 22:49:24 65° NW 22:55:06 10° NNE
NOSS 2-2 (E) 4.4 22:49:36 10° NW 22:53:57 62° NNE 22:59:59 10° ESE
Cosmos 923 Rocket 4.5 22:50:35 10° NW 22:55:43 49° WSW 22:59:07 20° S
Okean 1-7 3.0 22:54:08 22° SSW 22:57:00 88° WNW 23:01:25 10° NNE
GENESIS II 4.4 22:55:49 23° SSW 22:57:56 50° SE 23:01:47 10° NE
ISS -1.5 23:00:08 10° WSW 23:00:56 13° SW 23:00:56 13° SW
Cosmos 1242 Rocket 3.5 22:58:41 10° N 23:02:09 41° ENE 23:04:40 16° SE
NOSS 3-1 (A) 4.1 22:55:52 10° NW 23:02:47 79° NE 23:11:10 10° ESE
Cosmos 1703 Rocket 3.6 23:00:19 21° SSW 23:03:16 84° WNW 23:07:44 10° N
Cosmos 2360 Rocket 2.6 23:00:22 20° S 23:04:02 50° ESE 23:09:30 10° NE
Cosmos 1818 3.6 22:59:31 10° NW 23:04:57 64° SW 23:09:12 16° SSE
Cosmos 2263 Rocket 4.2 23:04:42 10° WNW 23:07:30 14° W 23:10:18 10° SW
Cosmos 1842 3.3 23:06:04 24° S 23:08:16 69° E 23:12:09 10° NNE
ASTEX 1 3.8 23:06:45 10° NNE 23:11:34 53° E 23:14:54 19° SSE
ATLAS 3B R/B 3.6 23:05:07 10° WNW 23:11:39 36° WSW 23:16:23 18° S
Cosmos 2242 Rocket 3.6 23:09:15 22° SSW 23:12:15 88° W 23:16:51 10° NNE
Cosmos 1908 4.3 23:08:54 10° N 23:12:30 38° ENE 23:15:21 14° SE
Cosmos 1441 Rocket 4.4 23:09:48 14° SW 23:12:41 35° WNW 23:16:09 10° N
Cosmos 1782 Rocket 3.9 23:08:46 10° NNW 23:13:01 53° W 23:15:37 22° SSW
Cosmos 2278 Rocket 3.1 23:07:34 10° NNW 23:13:06 48° NE 23:18:34 10° ESE
NOSS 3-1 (C) 4.0 23:06:05 10° NW 23:13:07 76° SW 23:21:35 10° SE
Cosmos 1238 Rocket 3.4 23:12:19 10° N 23:15:09 34° ENE 23:16:57 17° SE
Cosmos 2151 Rocket 4.2 23:11:32 10° N 23:15:52 52° ENE 23:19:15 16° SE
SL-08 ROCKET BODY 4.3 23:10:04 10° NNW 23:16:02 88° W 23:20:23 19° S
Cosmos 2112 Rocket 4.4 23:11:19 10° NW 23:16:29 50° WSW 23:19:52 21° S
Cosmos 1937 Rocket 3.8 23:13:31 21° S 23:16:55 56° ESE 23:22:06 10° NE
NOSS 2-1 (E) 2.7 23:15:19 23° SW 23:17:10 69° SE 23:20:38 10° NE
ALOS 2 3.8 23:15:18 18° SSW 23:17:53 32° W 23:21:50 10° NNW
Cosmos 1680 Rocket 4.2 23:14:11 10° NW 23:19:10 42° WSW 23:22:24 20° SSW
SL-16 R/B 4.1 23:13:53 10° ESE 23:19:16 32° NE 23:24:42 10° N
Cosmos 1943 Rocket 4.3 23:15:38 10° NNW 23:20:27 27° NNE 23:25:17 10° E
Meteor 1-23 Rocket 4.3 23:16:51 19° SSW 23:21:12 84° WNW 23:27:05 10° NNE
Okean 2 Rocket 3.4 23:16:42 10° N 23:21:13 65° ENE 23:24:33 18° SSE
NOSS 2-2 (D) 4.1 23:24:44 10° NW 23:29:08 75° NE 23:35:17 10° ESE
Okean 3 3.8 23:26:58 20° SSW 23:29:46 57° WNW 23:34:00 10° N
ERS-2 3.0 23:26:44 10° N 23:30:12 42° WNW 23:32:44 16° SW
Cosmos 839 Rocket 4.3 23:24:22 10° NW 23:30:35 74° NE 23:37:29 10° SE
Cosmos 2333 Rocket 2.7 23:26:56 20° S 23:30:36 46° ESE 23:36:01 10° NE
Cosmos 1980 Rocket 3.9 23:30:39 10° W 23:35:40 31° NW 23:40:44 10° NNE
Cosmos 2322 4.5 23:32:07 18° S 23:35:49 40° ESE 23:41:08 10° NE
Cosmos 1300 Rocket 3.8 23:33:18 10° NNW 23:37:33 54° W 23:40:11 22° SSW
Sich 1 Rocket 3.6 23:34:46 10° NNW 23:39:10 74° W 23:42:02 21° S
Cosmos 1898 Rocket 3.6 23:35:22 17° SSW 23:39:30 83° WNW 23:44:52 10° NNE
Cosmos 2322 Rocket 2.3 23:34:57 13° SW 23:39:57 75° NW 23:45:37 10° NNE
SJ 16-02 3.9 23:37:02 10° W 23:40:06 18° NW 23:43:11 10° N
Cosmos 990 Rocket 4.4 23:37:50 13° SW 23:42:28 60° WNW 23:47:41 10° NNE
Resurs 1-4 Rocket 3.9 23:40:42 10° NE 23:44:42 21° E 23:48:41 10° SE
Cosmos 2344 4.3 23:39:14 10° W 23:46:32 59° NNW 23:55:14 10° ENE
Cosmos 1461 2.8 23:44:46 10° NW 23:48:51 68° SW 23:52:53 11° SE
USA 215 3.2 23:43:03 10° ENE 23:49:38 86° SSE 23:56:13 10° WSW
Cosmos 1844 Rocket 3.9 23:45:24 10° NW 23:50:00 27° WSW 23:53:02 17° SSW
Cosmos 1726 4.2 23:49:39 10° NW 23:51:59 16° W 23:53:54 12° WSW
Cosmos 1709 Rocket 4.5 23:47:26 10° N 23:53:33 57° ENE 23:59:33 10° SSE
NOSS 2-1 (C) 3.3 23:50:44 11° WSW 23:53:50 60° NNW 23:57:21 10° NE
NOSS 2-1 (D) 3.4 23:52:23 10° WSW 23:55:31 58° NNW 23:59:01 10° NE
